| time (UTC) | temp F | wind direction | speed knots | gust knots | rain 1hr in | rain 24hr in | rain mn in | humidity % | barometer mb |
| 20260505054331 | 64 | 98 | 0.0 | 2.6 | 0.00 | 0.00 | 0.00 | 72 | 1007.6 |
| 20260505053829 | 64 | 307 | 0.0 | 3.5 | 0.00 | 0.00 | 0.00 | 71 | 1007.8 |
| 20260505053326 | 64 | 146 | 0.9 | 2.6 | 0.00 | 0.00 | 0.00 | 72 | 1007.8 |
| 20260505052822 | 64 | 102 | 1.7 | 3.5 | 0.00 | 0.00 | 0.00 | 71 | 1007.9 |
| 20260505052319 | 64 | 182 | 3.5 | 3.5 | 0.00 | 0.00 | 0.00 | 71 | 1008.1 |
| 20260505051816 | 65 | 239 | 0.0 | 2.6 | 0.00 | 0.00 | 0.00 | 71 | 1008.2 |
| 20260505051314 | 64 | 159 | 2.6 | 3.5 | 0.00 | 0.00 | 0.00 | 71 | 1008.1 |
| 20260505050812 | 64 | 180 | 0.0 | 1.7 | 0.00 | 0.00 | 0.00 | 71 | 1008.1 |
| 20260505050310 | 65 | 309 | 0.0 | 3.5 | 0.00 | 0.00 | 0.00 | 70 | 1008.2 |
| 20260505041740 | 66 | 173 | 1.7 | 4.3 | 0.00 | 0.00 | 0.00 | 67 | 1008.5 |
| 20260505041237 | 66 | 79 | 1.7 | 4.3 | 0.00 | 0.00 | 0.00 | 67 | 1008.7 |
| 20260505040735 | 66 | 155 | 1.7 | 6.1 | 0.00 | 0.00 | 0.00 | 67 | 1008.4 |
| 20260505040232 | 66 | 147 | 2.6 | 2.6 | 0.00 | 0.00 | 0.00 | 67 | 1008.7 |
| 20260505035729 | 66 | 58 | 1.7 | 4.3 | 0.00 | 0.00 | 0.00 | 67 | 1008.4 |
| 20260505035224 | 67 | 159 | 1.7 | 4.3 | 0.00 | 0.00 | 0.00 | 65 | 1008.7 |
| 20260505034721 | 67 | 230 | 5.2 | 5.2 | 0.00 | 0.00 | 0.00 | 65 | 1008.7 |
| 20260505034218 | 67 | 188 | 1.7 | 2.6 | 0.00 | 0.00 | 0.00 | 66 | 1008.6 |
| 20260505033715 | 67 | 186 | 3.5 | 8.7 | 0.00 | 0.00 | 0.00 | 64 | 1008.8 |
| 20260505033213 | 68 | 121 | 0.9 | 3.5 | 0.00 | 0.00 | 0.00 | 65 | 1008.6 |
| 20260505032711 | 68 | 147 | 0.9 | 5.2 | 0.00 | 0.00 | 0.00 | 63 | 1008.6 |
| 20260505032206 | 68 | 237 | 1.7 | 6.1 | 0.00 | 0.00 | 0.00 | 65 | 1008.5 |
| 20260505031704 | 68 | 180 | 1.7 | 2.6 | 0.00 | 0.00 | 0.00 | 64 | 1008.5 |
| 20260505031200 | 68 | 177 | 3.5 | 4.3 | 0.00 | 0.00 | 0.00 | 63 | 1008.4 |
| 20260505030657 | 68 | 17 | 0.0 | 3.5 | 0.00 | 0.00 | 0.00 | 63 | 1008.6 |
| 20260505030153 | 68 | 96 | 1.7 | 3.5 | 0.00 | 0.00 | 0.00 | 63 | 1008.3 |
| 20260505025649 | 68 | 213 | 3.5 | 6.1 | 0.00 | 0.00 | 0.00 | 63 | 1008.2 |
| 20260505025147 | 68 | 82 | 1.7 | 4.3 | 0.00 | 0.00 | 0.00 | 63 | 1008.2 |
| 20260505024645 | 69 | 57 | 0.9 | 4.3 | 0.00 | 0.00 | 0.00 | 62 | 1008.1 |
| 20260505024142 | 69 | 135 | 0.0 | 5.2 | 0.00 | 0.00 | 0.00 | 61 | 1007.9 |
| 20260505023639 | 69 | 147 | 1.7 | 4.3 | 0.00 | 0.00 | 0.00 | 61 | 1008.1 |
| 20260505023136 | 69 | 156 | 3.5 | 5.2 | 0.00 | 0.00 | 0.00 | 61 | 1008.0 |
| 20260505022634 | 69 | 212 | 0.9 | 3.5 | 0.00 | 0.00 | 0.00 | 61 | 1007.8 |
| 20260505022131 | 69 | 320 | 0.0 | 3.5 | 0.00 | 0.00 | 0.00 | 61 | 1007.8 |
| 20260505021627 | 70 | 159 | 1.7 | 2.6 | 0.00 | 0.00 | 0.00 | 59 | 1007.6 |
| 20260505021124 | 70 | 157 | 2.6 | 4.3 | 0.00 | 0.00 | 0.00 | 59 | 1007.4 |
| 20260505020620 | 70 | 152 | 3.5 | 4.3 | 0.00 | 0.00 | 0.00 | 58 | 1007.4 |
| 20260505020116 | 70 | 165 | 4.3 | 6.1 | 0.00 | 0.00 | 0.00 | 58 | 1007.2 |
| 20260505015613 | 70 | 277 | 0.9 | 3.5 | 0.00 | 0.00 | 0.00 | 59 | 1007.2 |
| 20260505015110 | 71 | 173 | 1.7 | 3.5 | 0.00 | 0.00 | 0.00 | 57 | 1007.0 |
| 20260505014607 | 71 | 204 | 1.7 | 5.2 | 0.00 | 0.00 | 0.00 | 57 | 1007.0 |
| 20260505014104 | 71 | 177 | 1.7 | 4.3 | 0.00 | 0.00 | 0.00 | 57 | 1006.9 |
| 20260505013601 | 71 | 228 | 7.0 | 8.7 | 0.00 | 0.00 | 0.00 | 56 | 1006.9 |
| 20260505013058 | 72 | 180 | 1.7 | 8.7 | 0.00 | 0.00 | 0.00 | 57 | 1007.1 |
| 20260505012556 | 72 | 191 | 1.7 | 4.3 | 0.00 | 0.00 | 0.00 | 56 | 1007.0 |
| 20260505012053 | 72 | 128 | 1.7 | 2.6 | 0.00 | 0.00 | 0.00 | 57 | 1007.0 |
| 20260505011548 | 72 | 137 | 1.7 | 4.3 | 0.00 | 0.00 | 0.00 | 56 | 1007.1 |
| 20260505011046 | 72 | 158 | 2.6 | 2.6 | 0.00 | 0.00 | 0.00 | 58 | 1007.0 |
| 20260505010541 | 72 | 212 | 1.7 | 3.5 | 0.00 | 0.00 | 0.00 | 57 | 1006.8 |
| 20260505010038 | 73 | 194 | 1.7 | 5.2 | 0.00 | 0.00 | 0.00 | 57 | 1006.8 |
| 20260505005534 | 73 | 226 | 0.0 | 4.3 | 0.00 | 0.00 | 0.00 | 56 | 1006.8 |
| 20260505005032 | 73 | 107 | 0.9 | 4.3 | 0.00 | 0.00 | 0.00 | 57 | 1006.7 |
| 20260505004529 | 73 | 171 | 0.0 | 3.5 | 0.00 | 0.00 | 0.00 | 56 | 1006.7 |
| 20260505004025 | 74 | 139 | 1.7 | 3.5 | 0.00 | 0.00 | 0.00 | 55 | 1006.7 |
| 20260505003523 | 74 | 171 | 0.0 | 5.2 | 0.00 | 0.00 | 0.00 | 54 | 1006.6 |
| 20260505003020 | 74 | 191 | 1.7 | 4.3 | 0.00 | 0.00 | 0.00 | 54 | 1006.7 |
| 20260505002521 | 75 | 144 | 0.0 | 5.2 | 0.00 | 0.00 | 0.00 | 52 | 1006.7 |
| 20260505002020 | 75 | 246 | 2.6 | 5.2 | 0.00 | 0.00 | 0.00 | 52 | 1006.6 |
| 20260505001517 | 76 | 137 | 0.9 | 2.6 | 0.00 | 0.00 | 0.00 | 50 | 1006.7 |
| 20260505001014 | 76 | 187 | 1.7 | 7.0 | 0.00 | 0.00 | 0.00 | 50 | 1006.6 |
| 20260505000511 | 76 | 232 | 1.7 | 9.6 | 0.00 | 0.00 | 0.00 | 50 | 1006.5 |
| 20260505000009 | 76 | 191 | 1.7 | 3.5 | 0.00 | 0.00 | 0.00 | 50 | 1006.7 |
| 20260504235505 | 77 | 245 | 1.7 | 4.3 | 0.00 | 0.00 | 0.00 | 50 | 1006.7 |
| 20260504235002 | 77 | 219 | 1.7 | 2.6 | 0.00 | 0.00 | 0.00 | 49 | 1006.6 |
| 20260504234459 | 77 | 231 | 3.5 | 9.6 | 0.00 | 0.00 | 0.00 | 49 | 1006.6 |
| 20260504233955 | 77 | 154 | 1.7 | 10.4 | 0.00 | 0.00 | 0.00 | 48 | 1006.8 |
| 20260504233451 | 77 | 255 | 6.1 | 12.2 | 0.00 | 0.00 | 0.00 | 47 | 1006.6 |
| 20260504232948 | 78 | 237 | 7.8 | 12.2 | 0.00 | 0.00 | 0.00 | 47 | 1006.5 |
| 20260504232445 | 78 | 237 | 6.1 | 14.8 | 0.00 | 0.00 | 0.00 | 47 | 1006.8 |
| 20260504231943 | 78 | 196 | 6.1 | 11.3 | 0.00 | 0.00 | 0.00 | 47 | 1006.6 |
| 20260504231439 | 78 | 237 | 7.0 | 17.4 | 0.00 | 0.00 | 0.00 | 47 | 1006.7 |
| 20260504230935 | 79 | 230 | 4.3 | 7.0 | 0.00 | 0.00 | 0.00 | 46 | 1006.7 |
| 20260504230432 | 79 | 229 | 5.2 | 10.4 | 0.00 | 0.00 | 0.00 | 47 | 1006.8 |
| 20260504225931 | 78 | 250 | 3.5 | 11.3 | 0.00 | 0.00 | 0.00 | 46 | 1006.7 |
| 20260504225427 | 79 | 250 | 3.5 | 11.3 | 0.00 | 0.00 | 0.00 | 45 | 1007.0 |
| 20260504224925 | 80 | 259 | 9.6 | 10.4 | 0.00 | 0.00 | 0.00 | 44 | 1006.7 |
| 20260504224421 | 80 | 260 | 1.7 | 16.5 | 0.00 | 0.00 | 0.00 | 44 | 1006.5 |
| 20260504223919 | 80 | 172 | 4.3 | 11.3 | 0.00 | 0.00 | 0.00 | 44 | 1006.5 |
| 20260504223414 | 80 | 214 | 1.7 | 11.3 | 0.00 | 0.00 | 0.00 | 44 | 1006.7 |
| 20260504222910 | 80 | 248 | 9.6 | 13.0 | 0.00 | 0.00 | 0.00 | 44 | 1006.5 |
| 20260504222408 | 80 | 240 | 6.1 | 16.5 | 0.00 | 0.00 | 0.00 | 44 | 1006.6 |
| 20260504221906 | 80 | 269 | 1.7 | 12.2 | 0.00 | 0.00 | 0.00 | 43 | 1006.4 |
| 20260504221402 | 80 | 327 | 5.2 | 13.0 | 0.00 | 0.00 | 0.00 | 44 | 1006.4 |
| 20260504220859 | 80 | 204 | 3.5 | 7.8 | 0.00 | 0.00 | 0.00 | 43 | 1006.5 |
| 20260504220356 | 80 | 222 | 4.3 | 9.6 | 0.00 | 0.00 | 0.00 | 44 | 1006.3 |
| 20260504215853 | 81 | 221 | 2.6 | 9.6 | 0.00 | 0.00 | 0.00 | 44 | 1006.7 |
| 20260504215349 | 80 | 260 | 7.0 | 13.0 | 0.00 | 0.00 | 0.00 | 45 | 1006.4 |
| 20260504214846 | 81 | 257 | 5.2 | 6.1 | 0.00 | 0.00 | 0.00 | 44 | 1006.7 |
| 20260504214343 | 82 | 279 | 3.5 | 7.8 | 0.00 | 0.00 | 0.00 | 45 | 1006.4 |
| 20260504213839 | 81 | 238 | 5.2 | 9.6 | 0.00 | 0.00 | 0.00 | 43 | 1006.6 |
| 20260504213335 | 81 | 255 | 4.3 | 10.4 | 0.00 | 0.00 | 0.00 | 44 | 1006.7 |
| 20260504212833 | 81 | 281 | 4.3 | 12.2 | 0.00 | 0.00 | 0.00 | 42 | 1006.7 |
| 20260504212328 | 81 | 266 | 2.6 | 7.8 | 0.00 | 0.00 | 0.00 | 43 | 1006.8 |
| 20260504211827 | 81 | 214 | 6.1 | 10.4 | 0.00 | 0.00 | 0.00 | 43 | 1006.7 |
| 20260504211328 | 81 | 115 | 3.5 | 8.7 | 0.00 | 0.00 | 0.00 | 43 | 1006.8 |
| 20260504210825 | 80 | 299 | 3.5 | 17.4 | 0.00 | 0.00 | 0.00 | 44 | 1006.8 |
| 20260504210322 | 81 | 254 | 2.6 | 16.5 | 0.00 | 0.00 | 0.00 | 43 | 1007.2 |
| 20260504205819 | 81 | 272 | 9.6 | 11.3 | 0.00 | 0.00 | 0.00 | 42 | 1007.1 |
| 20260504205317 | 81 | 237 | 7.0 | 7.8 | 0.00 | 0.00 | 0.00 | 42 | 1007.0 |
| 20260504204815 | 81 | 85 | 2.6 | 14.8 | 0.00 | 0.00 | 0.00 | 43 | 1007.3 |
| 20260504204313 | 80 | 243 | 7.0 | 19.1 | 0.00 | 0.00 | 0.00 | 46 | 1007.4 |
| 20260504203812 | 81 | 276 | 3.5 | 13.0 | 0.00 | 0.00 | 0.00 | 44 | 1007.4 |
| 20260504203309 | 82 | 152 | 1.7 | 9.6 | 0.00 | 0.00 | 0.00 | 42 | 1007.5 |
| 20260504202804 | 82 | 172 | 1.7 | 9.6 | 0.00 | 0.00 | 0.00 | 44 | 1007.8 |
| 20260504202302 | 82 | 229 | 1.7 | 11.3 | 0.00 | 0.00 | 0.00 | 44 | 1007.8 |
| 20260504201758 | 81 | 166 | 3.5 | 10.4 | 0.00 | 0.00 | 0.00 | 42 | 1007.9 |
| 20260504201255 | 81 | 255 | 13.0 | 17.4 | 0.00 | 0.00 | 0.00 | 41 | 1007.9 |
| 20260504200754 | 81 | 313 | 1.7 | 8.7 | 0.00 | 0.00 | 0.00 | 44 | 1007.8 |
| 20260504200249 | 79 | 242 | 13.0 | 19.1 | 0.00 | 0.00 | 0.00 | 43 | 1008.1 |
| 20260504195746 | 80 | 252 | 7.0 | 25.2 | 0.00 | 0.00 | 0.00 | 43 | 1008.2 |
| 20260504195241 | 81 | 194 | 3.5 | 9.6 | 0.00 | 0.00 | 0.00 | 43 | 1007.9 |
| 20260504194739 | 82 | 249 | 7.0 | 10.4 | 0.00 | 0.00 | 0.00 | 44 | 1008.1 |
| 20260504194235 | 80 | 258 | 6.1 | 14.8 | 0.00 | 0.00 | 0.00 | 43 | 1008.4 |
| 20260504193731 | 81 | 222 | 6.1 | 10.4 | 0.00 | 0.00 | 0.00 | 43 | 1008.3 |
| 20260504193229 | 81 | 225 | 7.0 | 10.4 | 0.00 | 0.00 | 0.00 | 43 | 1008.3 |
| 20260504192727 | 80 | 242 | 4.3 | 10.4 | 0.00 | 0.00 | 0.00 | 44 | 1008.5 |
| 20260504192225 | 80 | 271 | 4.3 | 13.0 | 0.00 | 0.00 | 0.00 | 45 | 1008.4 |
| 20260504191723 | 80 | 275 | 8.7 | 18.2 | 0.00 | 0.00 | 0.00 | 44 | 1008.6 |
| 20260504191220 | 80 | 277 | 6.1 | 13.0 | 0.00 | 0.00 | 0.00 | 44 | 1008.5 |
| 20260504190715 | 79 | 227 | 5.2 | 13.0 | 0.00 | 0.00 | 0.00 | 44 | 1008.5 |
| 20260504190212 | 80 | 271 | 7.8 | 13.0 | 0.00 | 0.00 | 0.00 | 44 | 1008.4 |
| 20260504185708 | 79 | 244 | 7.0 | 13.0 | 0.00 | 0.00 | 0.00 | 44 | 1008.3 |
| 20260504185205 | 80 | 236 | 7.0 | 13.0 | 0.00 | 0.00 | 0.00 | 44 | 1008.6 |
| 20260504184701 | 79 | 299 | 5.2 | 9.6 | 0.00 | 0.00 | 0.00 | 44 | 1008.5 |
| 20260504184156 | 80 | 238 | 11.3 | 19.1 | 0.00 | 0.00 | 0.00 | 43 | 1008.5 |
| 20260504183653 | 80 | 251 | 8.7 | 12.2 | 0.00 | 0.00 | 0.00 | 45 | 1008.5 |
| 20260504183150 | 79 | 180 | 4.3 | 14.8 | 0.00 | 0.00 | 0.00 | 46 | 1008.5 |
| 20260504182648 | 79 | 205 | 5.2 | 12.2 | 0.00 | 0.00 | 0.00 | 45 | 1008.5 |
| 20260504182145 | 79 | 255 | 6.1 | 10.4 | 0.00 | 0.00 | 0.00 | 45 | 1008.4 |
| 20260504181643 | 78 | 253 | 5.2 | 12.2 | 0.00 | 0.00 | 0.00 | 45 | 1008.3 |
| 20260504181140 | 78 | 243 | 10.4 | 18.2 | 0.00 | 0.00 | 0.00 | 45 | 1008.6 |
| 20260504180639 | 79 | 208 | 4.3 | 7.8 | 0.00 | 0.00 | 0.00 | 44 | 1008.5 |
| 20260504180138 | 78 | 206 | 3.5 | 7.8 | 0.00 | 0.00 | 0.00 | 45 | 1008.5 |
| 20260504175634 | 78 | 245 | 9.6 | 19.1 | 0.00 | 0.00 | 0.00 | 45 | 1008.5 |
| 20260504175131 | 78 | 217 | 2.6 | 13.0 | 0.00 | 0.00 | 0.00 | 47 | 1008.7 |
| 20260504174630 | 78 | 54 | 4.3 | 12.2 | 0.00 | 0.00 | 0.00 | 45 | 1008.7 |
| 20260504174125 | 78 | 240 | 8.7 | 11.3 | 0.00 | 0.00 | 0.00 | 45 | 1008.9 |
| 20260504173623 | 77 | 230 | 8.7 | 17.4 | 0.00 | 0.00 | 0.00 | 46 | 1009.1 |
| 20260504173120 | 78 | 277 | 3.5 | 12.2 | 0.00 | 0.00 | 0.00 | 45 | 1008.8 |
| 20260504172616 | 77 | 239 | 9.6 | 17.4 | 0.00 | 0.00 | 0.00 | 47 | 1008.7 |
| 20260504172113 | 77 | 241 | 7.8 | 13.0 | 0.00 | 0.00 | 0.00 | 45 | 1008.9 |
| 20260504171609 | 77 | 250 | 7.8 | 13.0 | 0.00 | 0.00 | 0.00 | 45 | 1008.9 |
| 20260504171107 | 77 | 274 | 3.5 | 9.6 | 0.00 | 0.00 | 0.00 | 45 | 1008.9 |
| 20260504170602 | 76 | 245 | 8.7 | 14.8 | 0.00 | 0.00 | 0.00 | 47 | 1009.1 |
| 20260504150946 | 71 | 200 | 4.3 | 11.3 | 0.00 | 0.00 | 0.00 | 52 | 1009.9 |
| 20260504150443 | 71 | 239 | 7.8 | 9.6 | 0.00 | 0.00 | 0.00 | 53 | 1009.9 |
| 20260504140909 | 67 | 265 | 3.5 | 9.6 | 0.00 | 0.00 | 0.00 | 56 | 1010.7 |
| 20260504140405 | 68 | 235 | 7.8 | 10.4 | 0.00 | 0.00 | 0.00 | 56 | 1010.7 |
| 20260504130331 | 65 | 250 | 6.1 | 11.3 | 0.00 | 0.00 | 0.00 | 60 | 1010.9 |
| 20260504120254 | 62 | 199 | 3.5 | 11.3 | 0.00 | 0.00 | 0.00 | 64 | 1010.9 |
| 20260504110218 | 62 | 269 | 0.0 | 4.3 | 0.00 | 0.00 | 0.00 | 64 | 1010.7 |
| 20260504100142 | 63 | 245 | 5.2 | 5.2 | 0.00 | 0.00 | 0.00 | 61 | 1011.0 |
| 20260504090104 | 63 | 210 | 3.5 | 8.7 | 0.00 | 0.00 | 0.00 | 62 | 1011.1 |
| 20260504081535 | 62 | 219 | 1.7 | 3.5 | 0.00 | 0.00 | 0.00 | 64 | 1011.2 |
| 20260504081030 | 62 | 253 | 4.3 | 7.8 | 0.00 | 0.00 | 0.00 | 66 | 1011.2 |
| 20260504080527 | 61 | 335 | 0.9 | 1.7 | 0.00 | 0.00 | 0.00 | 67 | 1011.2 |